Location: Thompson
(55.7500°N, 97.8670°W)
Time: 14:36:36
(UTC-05:00)

Amateur Radio Satellites - All Passes

Search period start: 31 July 2014 14:06
Search period end: 01 August 2014 14:06
Location: Thompson, 55.7500°N, 97.8670°W

Satellite Date Start Highest point End Downlink Frequencies (MHz)
Time Altitude Azimuth
Uosat F 31 Jul 14:09:05 14:10:24 11° 40° (NE) 14:11:42 435.120 FM
Saudisat 1A 31 Jul 14:12:44 14:16:58 42° 27° (NNE) 14:21:11 436.775 MHz
Oscar 16 31 Jul 14:17:07 14:22:12 65° 257° (WSW) 14:27:20 437.025 USB, Beacon 2401.1428
SO-50 31 Jul 14:27:25 14:31:57 74° 322° (NW) 14:36:37 436.795 FM
UOSAT-12 31 Jul 14:33:59 14:37:45 25° 119° (ESE) 14:41:35 437.025 FM, 437.400 FM
KITSAT 1 31 Jul 14:40:09 14:48:19 90° 226° (SW) 14:56:24 435.175 FM
HO-68 31 Jul 14:42:45 14:46:22 15° 335° (NNW) 14:49:58 435.675 MHz FM
AO-7 31 Jul 14:43:25 14:50:46 36° 44° (NE) 14:58:08 29.400 - 29.500 MHz
ITAMSAT 1 31 Jul 14:43:29 14:48:42 77° 255° (WSW) 14:53:57 435.822 SSB
Uribyol 2 31 Jul 15:02:28 15:07:34 54° 259° (W) 15:12:40 436.500 FM
AO-27 31 Jul 15:03:38 15:08:46 55° 259° (W) 15:13:55 436.795 MHz FM
RS-15 31 Jul 15:12:25 15:23:26 81° 132° (SE) 15:34:24 29.354 - 29.394 USB, Beacon 29.352 USB
TMSAT-1 31 Jul 15:15:04 15:20:21 73° 70° (ENE) 15:25:40 436.925 FM
AO-Echo 31 Jul 15:22:21 15:27:23 42° 263° (W) 15:32:25 ?
Oscar 19 31 Jul 15:29:19 15:33:12 21° 271° (W) 15:37:07 437.125 CW, 437.150 USB
Gurwin Techsat 1B 31 Jul 15:41:25 15:46:41 61° 258° (WSW) 15:51:58 435.225 FM
JAS-1B 31 Jul 15:42:01 15:51:22 65° 260° (W) 16:01:17 435.800 - 435.900 CW/SSB
Uosat F 31 Jul 15:43:18 15:47:58 39° 61° (ENE) 15:52:39 435.120 FM
Saudisat 1A 31 Jul 15:52:24 15:56:46 58° 229° (SW) 16:01:05 436.775 MHz
Oscar 16 31 Jul 16:00:25 16:02:38 13° 278° (W) 16:04:50 437.025 USB, Beacon 2401.1428
SO-50 31 Jul 16:09:02 16:13:10 32° 345° (NNW) 16:17:23 436.795 FM
UOSAT-12 31 Jul 16:12:48 16:17:29 82° 320° (NW) 16:22:15 437.025 FM, 437.400 FM
JAS-2 31 Jul 16:15:12 16:20:08 20° 43° (NE) 16:24:46 435.800 - 435.900 CW/SSB, 435.910 FM
ITAMSAT 1 31 Jul 16:26:01 16:29:06 16° 275° (W) 16:32:12 435.822 SSB
AO-7 31 Jul 16:34:30 16:42:54 86° 248° (WSW) 16:51:21 29.400 - 29.500 MHz
KITSAT 1 31 Jul 16:36:04 16:42:55 32° 250° (WSW) 16:49:44 435.175 FM
OPAL 31 Jul 16:37:42 16:41:05 18° 90° (E) 16:44:28 ?
Uribyol 2 31 Jul 16:47:15 16:48:15 11° 280° (W) 16:49:16 436.500 FM
AO-27 31 Jul 16:48:15 16:49:30 11° 280° (W) 16:50:45 436.795 MHz FM
TMSAT-1 31 Jul 16:56:35 17:00:50 24° 270° (W) 17:05:06 436.925 FM
Uosat F 31 Jul 17:21:58 17:26:46 43° 262° (W) 17:31:36 435.120 FM
Gurwin Techsat 1B 31 Jul 17:25:42 17:27:48 12° 279° (W) 17:29:55 435.225 FM
RS-15 31 Jul 17:25:47 17:36:36 59° 342° (NNW) 17:47:29 29.354 - 29.394 USB, Beacon 29.352 USB
Saudisat 1A 31 Jul 17:33:49 17:35:29 12° 249° (WSW) 17:37:09 436.775 MHz
JAS-1B 31 Jul 17:37:01 17:43:53 22° 284° (WNW) 17:51:02 435.800 - 435.900 CW/SSB
SO-50 31 Jul 17:50:47 17:54:52 29° 9° (N) 17:59:01 436.795 FM
Hamsat 31 Jul 17:53:16 17:57:17 46° 67° (ENE) 18:01:21 145.90 MHz
UOSAT-12 31 Jul 17:53:56 17:58:14 34° 343° (NNW) 18:02:35 437.025 FM, 437.400 FM
JAS-2 31 Jul 17:56:43 18:04:06 58° 65° (ENE) 18:10:46 435.800 - 435.900 CW/SSB, 435.910 FM
SO-67 31 Jul 18:00:58 18:02:00 11° 54° (NE) 18:03:02 435.3500 MHz FM
HO-68 31 Jul 18:12:17 18:16:09 16° 27° (NNE) 18:20:01 435.675 MHz FM
OPAL 31 Jul 18:15:37 18:20:43 86° 110° (ESE) 18:25:51 ?
AO-7 31 Jul 18:30:04 18:36:53 27° 271° (W) 18:43:46 29.400 - 29.500 MHz
STRAND 1 31 Jul 19:05:33 19:08:43 16° 85° (E) 19:11:52 ?
Hamsat 31 Jul 19:29:54 19:33:29 27° 267° (W) 19:37:06 145.90 MHz
SO-67 31 Jul 19:30:59 19:34:27 74° 73° (ENE) 19:37:57 435.3500 MHz FM
SO-50 31 Jul 19:31:38 19:36:16 56° 33° (NNE) 19:40:58 436.795 FM
UOSAT-12 31 Jul 19:35:21 19:39:31 29° 7° (N) 19:43:40 437.025 FM, 437.400 FM
RS-15 31 Jul 19:40:11 19:50:58 57° 15° (NNE) 20:01:56 29.354 - 29.394 USB, Beacon 29.352 USB
JAS-2 31 Jul 19:42:09 19:49:21 44° 264° (W) 19:55:57 435.800 - 435.900 CW/SSB, 435.910 FM
OPAL 31 Jul 19:55:11 19:59:06 23° 310° (NW) 20:03:03 ?
HO-68 31 Jul 19:55:37 20:02:04 38° 52° (NE) 20:08:31 435.675 MHz FM
UKube-1 31 Jul 20:22:12 20:25:35 22° 56° (NE) 20:28:59 145.840 MHz, 145.915 MHz
STRAND 1 31 Jul 20:43:36 20:48:46 82° 106° (ESE) 20:53:52 ?
MaSat-1 31 Jul 21:02:48 21:06:17 23° 106° (ESE) 21:10:07 437.345 MHz
Oscar 11 31 Jul 21:03:46 21:07:22 26° 60° (ENE) 21:10:59 145.825 FM, Beacon 2401.500 USB
SO-67 31 Jul 21:06:22 21:08:01 13° 273° (W) 21:09:40 435.3500 MHz FM
SO-50 31 Jul 21:12:22 21:16:48 41° 234° (SW) 21:21:18 436.795 FM
UOSAT-12 31 Jul 21:15:54 21:20:34 51° 31° (NNE) 21:25:12 437.025 FM, 437.400 FM
FUNcube-1 31 Jul 21:34:04 21:37:19 22° 58° (ENE) 21:40:32 145.950 - 145.970 MHz USB
JAS-2 31 Jul 21:34:43 21:36:09 11° 286° (WNW) 21:37:35 435.800 - 435.900 CW/SSB, 435.910 FM
HO-68 31 Jul 21:42:16 21:49:26 71° 254° (WSW) 21:56:37 435.675 MHz FM
RS-15 31 Jul 21:53:20 22:04:21 86° 225° (SW) 22:15:40 29.354 - 29.394 USB, Beacon 29.352 USB
UKube-1 31 Jul 21:57:04 22:01:26 68° 256° (WSW) 22:05:50 145.840 MHz, 145.915 MHz
STRAND 1 31 Jul 22:23:28 22:27:28 24° 307° (NW) 22:31:27 ?
MaSat-1 31 Jul 22:38:28 22:43:02 78° 309° (NW) 22:48:11 437.345 MHz
Oscar 11 31 Jul 22:39:08 22:43:21 53° 260° (W) 22:47:36 145.825 FM, Beacon 2401.500 USB
UOSAT-12 31 Jul 22:56:13 23:00:46 47° 232° (SW) 23:05:17 437.025 FM, 437.400 FM
FUNcube-1 31 Jul 23:09:11 23:13:25 64° 258° (WSW) 23:17:36 145.950 - 145.970 MHz USB
HO-68 31 Jul 23:33:42 23:38:30 19° 276° (W) 23:43:19 435.675 MHz FM
UKube-1 31 Jul 23:37:09 23:38:31 11° 276° (W) 23:39:53 145.840 MHz, 145.915 MHz
Sapphire 01 Aug 00:01:14 00:03:59 14° 104° (ESE) 00:06:45 437.095 MHz 1200 baud AX-25 AFSK
RS-15 01 Aug 00:06:04 00:15:28 35° 251° (WSW) 00:25:09 29.354 - 29.394 USB, Beacon 29.352 USB
ISS 01 Aug 00:16:31 00:18:58 19° 152° (SSE) 00:21:26 145.800 FM
MaSat-1 01 Aug 00:17:03 00:21:10 27° 333° (NNW) 00:25:35 437.345 MHz
Oscar 10/S400 01 Aug 00:30:00 00:58:11 42° 169° (SSE) 07:36:09 145.825 - 145.975 CW/USB, Beacon 145.810 USB
PCSat 01 Aug 00:32:17 00:36:37 25° 112° (ESE) 00:40:57 145.825 MHz
AO-40 01 Aug 01:27:09 06:17:32 24° 178° (S) 09:13:49 Beacon 2401.320
JAS-1B 01 Aug 01:33:42 01:34:56 10° 62° (ENE) 01:36:08 435.800 - 435.900 CW/SSB
Sapphire 01 Aug 01:41:05 01:46:24 62° 125° (SE) 01:51:47 437.095 MHz 1200 baud AX-25 AFSK
ISS 01 Aug 01:52:00 01:55:09 38° 172° (S) 01:58:18 145.800 FM
Oscar 19 01 Aug 01:53:02 01:56:16 16° 85° (E) 01:59:29 437.125 CW, 437.150 USB
MaSat-1 01 Aug 01:56:40 02:00:08 18° 357° (N) 02:03:42 437.345 MHz
PCSat 01 Aug 02:14:03 02:19:30 85° 313° (NW) 02:24:59 145.825 MHz
Oscar 16 01 Aug 02:21:20 02:25:42 27° 92° (E) 02:30:03 437.025 USB, Beacon 2401.1428
OPAL 01 Aug 02:23:05 02:26:20 18° 45° (NE) 02:29:36 ?
ITAMSAT 1 01 Aug 02:49:14 02:53:17 23° 90° (E) 02:57:18 435.822 SSB
Uribyol 2 01 Aug 03:07:32 03:12:09 31° 94° (E) 03:16:43 436.500 FM
AO-27 01 Aug 03:09:02 03:13:40 31° 94° (E) 03:18:15 436.795 MHz FM
JAS-1B 01 Aug 03:20:01 03:28:48 39° 88° (E) 03:36:28 435.800 - 435.900 CW/SSB
AO-Echo 01 Aug 03:21:50 03:26:39 40° 96° (E) 03:31:18 ?
TMSAT-1 01 Aug 03:24:11 03:27:34 17° 85° (E) 03:30:56 436.925 FM
Sapphire 01 Aug 03:24:57 03:30:07 43° 328° (NNW) 03:35:19 437.095 MHz 1200 baud AX-25 AFSK
ISS 01 Aug 03:28:23 03:31:30 36° 192° (SSW) 03:34:37 145.800 FM
Oscar 19 01 Aug 03:31:15 03:36:28 81° 106° (ESE) 03:41:39 437.125 CW, 437.150 USB
MaSat-1 01 Aug 03:35:05 03:39:12 23° 21° (NNE) 03:43:22 437.345 MHz
Gurwin Techsat 1B 01 Aug 03:49:58 03:54:45 32° 94° (E) 03:59:29 435.225 FM
PCSat 01 Aug 03:58:43 04:03:37 33° 337° (NNW) 04:08:33 145.825 MHz
OPAL 01 Aug 03:59:33 04:04:28 69° 66° (ENE) 04:09:27 ?
Oscar 16 01 Aug 04:00:21 04:05:28 63° 292° (WNW) 04:10:35 437.025 USB, Beacon 2401.1428
ITAMSAT 1 01 Aug 04:28:10 04:33:22 75° 290° (WNW) 04:38:31 435.822 SSB
AO-7 01 Aug 04:28:20 04:34:16 21° 84° (E) 04:40:09 29.400 - 29.500 MHz
Uribyol 2 01 Aug 04:46:52 04:51:55 54° 295° (WNW) 04:56:55 436.500 FM
AO-27 01 Aug 04:48:24 04:53:29 54° 295° (WNW) 04:58:31 436.795 MHz FM
STRAND 1 01 Aug 04:52:44 04:55:07 13° 43° (NE) 04:57:31 ?
AO-Echo 01 Aug 05:00:41 05:05:29 41° 298° (WNW) 05:10:07 ?
TMSAT-1 01 Aug 05:03:01 05:08:22 81° 106° (ESE) 05:13:40 436.925 FM
ISS 01 Aug 05:05:25 05:07:36 16° 211° (SSW) 05:09:47 145.800 FM
Sapphire 01 Aug 05:10:20 05:14:50 26° 353° (N) 05:19:21 437.095 MHz 1200 baud AX-25 AFSK
JAS-1B 01 Aug 05:10:28 05:20:08 75° 294° (WNW) 05:28:28 435.800 - 435.900 CW/SSB
Oscar 19 01 Aug 05:11:16 05:15:20 24° 307° (NW) 05:19:24 437.125 CW, 437.150 USB
MaSat-1 01 Aug 05:12:27 05:17:38 52° 44° (NE) 05:22:45 437.345 MHz
KITSAT 1 01 Aug 05:19:26 05:24:47 20° 102° (ESE) 05:30:08 435.175 FM
Uosat F 01 Aug 05:21:47 05:26:23 34° 96° (E) 05:30:56 435.120 FM
Gurwin Techsat 1B 01 Aug 05:29:49 05:35:00 54° 294° (WNW) 05:40:10 435.225 FM
OPAL 01 Aug 05:39:54 05:43:51 24° 266° (W) 05:47:51 ?
Oscar 16 01 Aug 05:40:51 05:43:58 16° 313° (NW) 05:47:05 437.025 USB, Beacon 2401.1428
PCSat 01 Aug 05:44:03 05:48:32 25° 2° (N) 05:53:00 145.825 MHz
ITAMSAT 1 01 Aug 06:08:36 06:12:08 19° 311° (NW) 06:15:40 435.822 SSB
AO-7 01 Aug 06:20:18 06:28:40 71° 107° (ESE) 06:36:58 29.400 - 29.500 MHz
Uribyol 2 01 Aug 06:27:41 06:30:24 15° 316° (NW) 06:33:07 436.500 FM
STRAND 1 01 Aug 06:28:19 06:33:16 49° 64° (ENE) 06:38:13 ?
AO-27 01 Aug 06:29:14 06:32:01 15° 316° (NW) 06:34:47 436.795 MHz FM
AO-Echo 01 Aug 06:41:25 06:43:02 11° 320° (NW) 06:44:37 ?
TMSAT-1 01 Aug 06:43:36 06:47:48 25° 307° (NW) 06:51:59 436.925 FM
JAS-2 01 Aug 06:44:18 06:48:56 23° 85° (E) 06:53:12 435.800 - 435.900 CW/SSB, 435.910 FM
MaSat-1 01 Aug 06:49:58 06:54:58 43° 245° (WSW) 06:59:48 437.345 MHz
Sapphire 01 Aug 06:55:01 06:59:48 30° 19° (NNE) 07:04:35 437.095 MHz 1200 baud AX-25 AFSK
Uosat F 01 Aug 07:00:32 07:05:22 48° 296° (WNW) 07:10:09 435.120 FM
JAS-1B 01 Aug 07:01:15 07:09:16 31° 319° (NW) 07:16:35 435.800 - 435.900 CW/SSB
Hamsat 01 Aug 07:07:15 07:11:12 34° 95° (E) 07:15:10 145.90 MHz
KITSAT 1 01 Aug 07:10:46 07:18:44 65° 125° (SE) 07:26:44 435.175 FM
Gurwin Techsat 1B 01 Aug 07:11:04 07:13:58 15° 316° (NW) 07:16:51 435.225 FM
PCSat 01 Aug 07:28:16 07:33:21 38° 28° (NNE) 07:38:24 145.825 MHz
Saudisat 1A 01 Aug 07:45:06 07:48:54 29° 122° (ESE) 07:52:44 436.775 MHz
STRAND 1 01 Aug 08:07:58 08:12:39 35° 265° (W) 08:17:21 ?
AO-7 01 Aug 08:13:27 08:21:09 43° 311° (NW) 08:28:47 29.400 - 29.500 MHz
SO-67 01 Aug 08:20:45 08:23:56 31° 96° (E) 08:27:04 435.3500 MHz FM
JAS-2 01 Aug 08:28:47 08:34:58 81° 289° (WNW) 08:40:26 435.800 - 435.900 CW/SSB, 435.910 FM
Sapphire 01 Aug 08:38:40 08:44:07 70° 43° (NE) 08:49:32 437.095 MHz 1200 baud AX-25 AFSK
Uosat F 01 Aug 08:40:55 08:43:05 13° 318° (NW) 08:45:16 435.120 FM
Hamsat 01 Aug 08:43:15 08:47:14 38° 295° (WNW) 08:51:15 145.90 MHz
JAS-1B 01 Aug 08:51:20 08:56:53 17° 345° (NNW) 09:02:13 435.800 - 435.900 CW/SSB
HO-68 01 Aug 09:02:48 09:07:06 17° 81° (E) 09:11:22 435.675 MHz FM
KITSAT 1 01 Aug 09:06:27 09:14:26 57° 330° (NNW) 09:22:26 435.175 FM
PCSat 01 Aug 09:11:48 09:17:15 77° 231° (SW) 09:22:40 145.825 MHz
Saudisat 1A 01 Aug 09:23:49 09:28:14 68° 323° (NW) 09:32:41 436.775 MHz
UKube-1 01 Aug 09:39:24 09:41:24 13° 85° (E) 09:43:25 145.840 MHz, 145.915 MHz
SO-67 01 Aug 09:53:56 09:56:58 28° 295° (WNW) 10:00:00 435.3500 MHz FM
AO-7 01 Aug 10:06:27 10:12:00 20° 336° (NNW) 10:17:33 29.400 - 29.500 MHz
JAS-2 01 Aug 10:14:34 10:19:10 22° 314° (NW) 10:23:25 435.800 - 435.900 CW/SSB, 435.910 FM
Oscar 11 01 Aug 10:19:49 10:22:50 18° 88° (E) 10:25:50 145.825 FM, Beacon 2401.500 USB
Sapphire 01 Aug 10:22:28 10:27:14 32° 245° (WSW) 10:31:58 437.095 MHz 1200 baud AX-25 AFSK
JAS-1B 01 Aug 10:38:32 10:43:50 16° 11° (N) 10:49:02 435.800 - 435.900 CW/SSB
HO-68 01 Aug 10:49:12 10:56:19 64° 104° (ESE) 11:03:24 435.675 MHz FM
FUNcube-1 01 Aug 10:51:43 10:54:09 15° 87° (E) 10:56:35 145.950 - 145.970 MHz USB
PCSat 01 Aug 10:56:12 10:59:54 19° 252° (WSW) 11:03:34 145.825 MHz
KITSAT 1 01 Aug 11:03:50 11:11:25 41° 358° (N) 11:19:00 435.175 FM
Saudisat 1A 01 Aug 11:04:34 11:08:30 30° 346° (NNW) 11:12:25 436.775 MHz
UKube-1 01 Aug 11:14:00 11:18:24 78° 105° (ESE) 11:22:45 145.840 MHz, 145.915 MHz
SO-50 01 Aug 11:38:11 11:38:46 10° 109° (ESE) 11:39:22 436.795 FM
Oscar 19 01 Aug 11:41:15 11:43:31 13° 42° (NE) 11:45:48 437.125 CW, 437.150 USB
Oscar 11 01 Aug 11:55:11 11:59:33 74° 288° (WNW) 12:03:53 145.825 FM, Beacon 2401.500 USB
AO-7 01 Aug 11:57:28 12:01:52 16° 4° (N) 12:06:16 29.400 - 29.500 MHz
Oscar 16 01 Aug 12:08:37 12:12:09 19° 49° (NE) 12:15:42 437.025 USB, Beacon 2401.1428
JAS-1B 01 Aug 12:23:37 12:31:15 28° 37° (NE) 12:38:53 435.800 - 435.900 CW/SSB
FUNcube-1 01 Aug 12:26:58 12:31:10 85° 287° (WNW) 12:35:24 145.950 - 145.970 MHz USB
RS-15 01 Aug 12:29:11 12:37:11 24° 101° (E) 12:45:05 29.354 - 29.394 USB, Beacon 29.352 USB
HO-68 01 Aug 12:37:15 12:43:50 41° 306° (NW) 12:50:23 435.675 MHz FM
ITAMSAT 1 01 Aug 12:37:34 12:40:56 18° 47° (NE) 12:44:18 435.822 SSB
Saudisat 1A 01 Aug 12:45:20 12:49:11 28° 10° (N) 12:53:01 436.775 MHz
UKube-1 01 Aug 12:50:58 12:54:09 20° 306° (NW) 12:57:19 145.840 MHz, 145.915 MHz
Uribyol 2 01 Aug 12:55:12 12:59:10 23° 52° (NE) 13:03:08 436.500 FM
AO-27 01 Aug 12:56:55 13:00:55 23° 52° (NE) 13:04:56 436.795 MHz FM
KITSAT 1 01 Aug 13:00:34 13:08:30 53° 26° (NNE) 13:16:23 435.175 FM
AO-Echo 01 Aug 13:04:34 13:08:50 25° 55° (NE) 13:13:05 ?
SO-50 01 Aug 13:13:57 13:18:18 51° 129° (SE) 13:22:47 436.795 FM
TMSAT-1 01 Aug 13:15:31 13:18:12 14° 43° (NE) 13:20:53 436.925 FM
Oscar 19 01 Aug 13:16:53 13:21:47 48° 64° (ENE) 13:26:43 437.125 CW, 437.150 USB
Oscar 11 01 Aug 13:32:36 13:35:04 15° 309° (NW) 13:37:32 145.825 FM, Beacon 2401.500 USB
Gurwin Techsat 1B 01 Aug 13:40:25 13:44:32 24° 52° (NE) 13:48:41 435.225 FM
Oscar 16 01 Aug 13:45:41 13:50:48 78° 71° (ENE) 13:55:58 437.025 USB, Beacon 2401.1428
AO-7 01 Aug 13:45:42 13:51:55 24° 31° (NNE) 13:58:08 29.400 - 29.500 MHz
